Cedar Rapids, IA

4:49 PM CST on November 11, 2019 (GMT -0600)
The Eastern Iowa Airport

Weather History for KCID - September, 2019

Change the Weather History Date:

Sunday, September 1, 2019

  Actual Average Record
Temperature  
Mean Temperature 67 °F 68 °F  
Max Temperature 75 °F 79 °F 98 °F (1953)
Min Temperature 58 °F 57 °F 39 °F (1949)
Degree Days  
Heating Degree Days 0 1  
Month to date heating degree days 0 1  
Since 1 July heating degree days 8 20  
Cooling Degree Days 2 5  
Month to date cooling degree days 2 5  
Year to date cooling degree days 654 673  
Growing Degree Days 15 (Base 50)    
Moisture  
Dew Point 62 °F    
Average Humidity 87    
Maximum Humidity 100    
Minimum Humidity 73    
Precipitation  
Precipitation 0.00 in 0.12 in 2.70 in (1923)
Month to date precipitation 0.00 0.12  
Year to date precipitation 27.85 25.42  
Sea Level Pressure  
Sea Level Pressure 30.12 in    
Wind  
Wind Speed 4 mph (East)    
Max Wind Speed 8 mph    
Max Gust Speed 12 mph    
Visibility 9 miles    
Events      
T = Trace of Precipitation, MM = Missing Value Source: NWS Daily Summary

Daily Weather History Graph

Daily Weather History Graph

Search for Another Location

Airport or City:

Astronomy

Sep. 01, 2019 Rise Set
Actual Time 6:32 AM CDT 7:40 PM CDT
Civil Twilight 6:03 AM CDT 8:09 PM CDT
Nautical Twilight 5:29 AM CDT 8:43 PM CDT
Astronomical Twilight 4:53 AM CDT 9:19 PM CDT
Moon 9:04 AM CDT (9/1) 9:25 PM CDT (9/1)
Length of Visible Light 14h 05m
Length of Day
13h 08m
Waxing Crescent, 8% of the Moon is Illuminated
Sep 1
Waxing Crescent
Sep 5
First Quarter
Sep 13
Full
Sep 21
Last Quarter
Sep 28
New

Hourly Weather History & Observations

Time (CDT) Temp. Dew Point Humidity Pressure Visibility Wind Dir Wind Speed Gust Speed Precip Events Conditions
12:52 AM 61.0 °F 60.1 °F 97% 30.19 in 10.0 mi NNE 4.6 mph - N/A   Overcast
1:52 AM 60.1 °F 59.0 °F 96% 30.17 in 10.0 mi East 5.8 mph - N/A   Overcast
2:52 AM 60.1 °F 57.9 °F 93% 30.16 in 10.0 mi ENE 4.6 mph - N/A   Overcast
3:52 AM 60.1 °F 59.0 °F 96% 30.14 in 10.0 mi East 4.6 mph - N/A   Overcast
4:52 AM 59.0 °F 57.9 °F 96% 30.14 in 10.0 mi ENE 5.8 mph - N/A   Partly Cloudy
5:52 AM 57.9 °F 57.9 °F 100% 30.13 in 10.0 mi NE 5.8 mph - N/A   Scattered Clouds
6:52 AM 57.9 °F 57.9 °F 100% 30.14 in 7.0 mi NE 6.9 mph - N/A   Partly Cloudy
7:52 AM 62.1 °F 60.1 °F 93% 30.15 in 10.0 mi NNE 4.6 mph - N/A   Mostly Cloudy
8:10 AM 62.1 °F 61.0 °F 96% 30.15 in 10.0 mi ENE 4.6 mph - N/A   Mostly Cloudy
8:21 AM 62.1 °F 61.0 °F 96% 30.15 in 10.0 mi East 6.9 mph - N/A   Mostly Cloudy
8:30 AM 61.0 °F 61.0 °F 100% 30.15 in 8.0 mi East 5.8 mph - N/A   Mostly Cloudy
8:52 AM 62.1 °F 61.0 °F 96% 30.16 in 6.0 mi East 5.8 mph - N/A   Overcast
9:52 AM 63.0 °F 62.1 °F 97% 30.16 in 6.0 mi ESE 5.8 mph - N/A   Overcast
10:18 AM 64.0 °F 62.1 °F 93% 30.16 in 6.0 mi ESE 4.6 mph - N/A   Overcast
10:52 AM 64.9 °F 63.0 °F 93% 30.15 in 7.0 mi East 5.8 mph - N/A   Overcast
11:52 AM 66.0 °F 63.0 °F 90% 30.14 in 8.0 mi ESE 5.8 mph - N/A   Overcast
12:52 PM 66.9 °F 63.0 °F 87% 30.13 in 10.0 mi South 6.9 mph - N/A   Overcast
1:52 PM 69.1 °F 64.0 °F 84% 30.11 in 10.0 mi SE 3.5 mph - N/A   Overcast
2:52 PM 71.1 °F 64.0 °F 78% 30.09 in 10.0 mi SSW 5.8 mph - N/A   Mostly Cloudy
3:40 PM 72.0 °F 64.0 °F 76% 30.09 in 10.0 mi Calm Calm - N/A   Clear
3:52 PM 73.0 °F 64.9 °F 76% 30.08 in 10.0 mi Variable 3.5 mph - N/A   Partly Cloudy
4:52 PM 73.9 °F 64.0 °F 71% 30.07 in 10.0 mi Variable 4.6 mph - N/A   Partly Cloudy
5:52 PM 73.9 °F 64.0 °F 71% 30.06 in 10.0 mi South 3.5 mph - N/A   Partly Cloudy
6:52 PM 73.0 °F 64.9 °F 76% 30.06 in 10.0 mi Calm Calm - N/A   Clear
7:52 PM 68.0 °F 64.9 °F 90% 30.06 in 10.0 mi Calm Calm - N/A   Clear
8:52 PM 64.0 °F 63.0 °F 96% 30.07 in 7.0 mi South 3.5 mph - N/A   Clear
9:52 PM 64.0 °F 63.0 °F 96% 30.08 in 8.0 mi Calm Calm - N/A   Overcast
10:52 PM 64.0 °F 64.0 °F 100% 30.09 in 7.0 mi Calm Calm - N/A   Overcast
11:52 PM 66.0 °F 64.9 °F 96% 30.08 in 8.0 mi SSE 3.5 mph - N/A   Overcast